Theta_e
283 280 283 285 287 287 286 285 284 283 284 283 283 284 287 284 283 282 283 283 284 285 286 287 286 286 288 287 285 285 285 285 284 287 289 290 290 289 289 290 290 289 289 289 288 287 287 286 286 286 286 287 289 291 293 294 294 294 293 294 293 293 292 293 291 291 290 289 289 289 288 288 287 286 285 284 284 284 283 283 283 282 282 282 282 282 282
283 281 282 284 285 283 283 284 284 285 283 284 285 286 287 286 286 288 285 281 281 282 284 287 289 288 286 283 283 283 285 287 286 287 288 289 291 291 291 292 291 291 290 289 288 287 287 287 287 287 287 287 289 292 292 292 293 293 292 293 292 292 292 291 290 289 289 289 288 288 287 286 285 284 284 284 283 283 282 282 282 282 282 282 282 281 281
279 281 282 283 283 284 282 282 284 285 285 285 286 287 287 285 285 287 284 283 285 286 285 287 288 286 286 285 286 287 287 285 286 287 289 291 292 292 292 292 291 290 289 288 288 288 288 288 288 288 288 288 288 289 292 292 292 292 293 292 292 292 291 290 289 289 288 287 287 287 286 285 284 283 283 283 282 282 281 281 281 281 281 281 281 281 281
274 279 280 279 280 280 280 281 282 283 284 283 285 283 285 283 285 285 282 283 285 285 288 289 288 287 288 289 290 289 288 286 286 288 290 291 292 292 292 292 290 289 289 289 289 289 290 289 288 289 288 288 288 289 291 291 292 290 291 292 292 291 290 288 288 288 287 286 286 285 284 283 283 283 282 282 282 281 281 280 280 280 280 280 280 280 281
275 277 279 280 280 280 278 281 284 284 285 286 285 287 287 288 288 284 283 285 285 288 289 287 286 287 289 289 290 291 290 287 287 289 291 291 291 291 291 292 291 291 292 292 292 291 291 290 290 289 289 289 289 290 290 291 290 289 291 291 291 290 288 288 287 287 286 286 285 284 283 283 282 282 282 281 281 281 280 280 280 280 280 280 279 279 280
275 276 280 280 278 275 278 289 290 287 285 284 284 284 286 287 288 288 290 291 287 285 285 288 288 288 289 291 292 292 291 289 286 286 287 289 290 290 290 291 292 292 292 292 292 291 291 290 289 288 289 289 289 288 288 288 289 289 290 290 290 289 287 287 287 286 286 285 284 283 282 282 282 281 281 281 280 280 280 279 279 279 279 279 279 279 279
274 277 280 279 275 277 288 287 288 289 289 288 287 288 288 288 289 289 289 289 284 287 289 290 291 291 291 288 286 287 287 288 290 290 289 288 288 289 290 290 290 291 292 292 291 289 287 287 287 287 287 287 287 287 287 286 287 288 289 289 288 287 287 286 286 285 284 284 283 282 281 281 281 281 281 280 279 279 279 279 279 279 278 278 278 278 279
275 275 280 274 276 285 284 281 281 284 289 288 287 285 287 286 286 288 288 290 291 288 288 288 287 287 285 283 284 286 287 287 291 290 290 290 288 288 290 290 291 291 291 291 290 289 288 288 288 288 288 288 287 287 286 287 286 286 287 287 287 286 286 285 284 284 283 283 282 281 281 281 281 280 280 279 279 278 278 278 278 278 277 278 277 277 278
277 274 278 276 278 280 284 285 282 285 283 282 284 281 285 288 289 288 289 290 290 291 291 290 287 284 286 287 290 285 286 290 289 291 292 292 291 290 290 290 290 289 289 289 290 288 287 288 288 288 288 288 288 286 286 286 286 285 285 285 285 285 285 284 284 283 283 283 282 281 281 280 280 280 279 278 278 278 278 278 278 277 277 277 277 277 277
273 275 269 270 273 275 281 286 283 288 286 289 288 285 285 288 290 291 290 289 289 290 290 287 284 288 287 287 290 290 291 291 291 287 289 290 290 290 289 287 286 286 286 286 286 289 287 288 288 288 287 288 287 286 286 285 285 285 285 285 285 285 285 284 283 283 283 282 282 281 281 280 280 279 278 278 278 278 278 277 277 277 277 276 276 277 276
270 270 273 272 274 279 283 282 286 288 288 289 286 281 281 288 288 289 290 289 289 289 289 284 286 286 284 286 289 290 291 291 289 291 291 290 289 288 287 287 288 287 286 286 285 286 286 287 287 286 287 287 287 286 285 285 285 285 285 286 285 285 284 283 283 282 282 282 281 281 280 280 279 278 278 278 277 277 277 277 276 276 276 276 275 275 276
277 277 273 275 272 280 281 283 283 287 287 290 288 273 280 286 288 289 288 289 288 289 289 286 287 287 285 286 291 291 289 287 287 287 290 290 288 286 284 283 285 286 285 286 285 286 286 287 285 286 286 286 286 286 285 284 284 285 286 286 285 283 283 282 281 281 281 280 280 280 279 278 278 277 277 276 276 276 276 276 276 276 275 275 274 275 275
277 281 271 267 275 282 280 282 286 285 291 290 280 276 286 286 288 287 290 289 289 289 285 286 286 287 292 291 288 284 285 287 286 284 284 286 284 285 284 285 285 284 284 286 287 286 286 285 285 285 286 286 286 285 284 283 284 286 285 283 283 283 282 281 280 280 280 280 279 279 279 278 278 276 276 276 276 276 275 275 275 275 274 274 274 273 273
279 279 279 277 277 282 284 281 286 288 288 276 280 288 284 286 284 285 288 288 287 287 287 287 290 291 290 287 286 285 284 285 284 282 282 283 282 283 281 281 282 284 284 285 286 285 284 284 285 285 286 286 285 285 284 284 285 283 283 282 282 281 281 280 280 279 279 279 279 278 277 277 276 276 275 276 276 275 275 275 274 273 273 273 273 273 273
271 268 275 269 273 284 287 286 284 286 287 287 285 283 283 285 287 286 286 287 286 287 287 287 289 288 286 287 289 289 287 286 286 285 283 283 283 283 283 284 283 283 284 284 283 283 282 283 284 285 285 285 285 284 285 285 282 282 281 281 281 280 279 279 278 278 277 277 277 277 276 276 276 275 274 274 274 274 274 273 273 272 272 272 272 272 272
280 279 276 279 285 284 289 289 287 288 285 285 287 289 287 283 284 287 287 286 286 288 289 287 286 287 286 284 285 285 285 285 284 282 282 281 281 281 280 280 281 281 282 282 282 280 280 282 283 284 285 285 285 284 284 280 280 280 280 279 279 279 278 277 277 276 276 276 275 275 275 275 274 274 273 273 273 273 273 273 273 272 272 272 272 272 272
283 282 284 283 282 287 291 291 289 292 291 284 285 291 289 287 283 283 286 287 285 286 288 287 287 285 286 286 285 286 287 286 284 284 284 282 282 281 281 281 279 280 281 280 280 279 279 280 281 283 284 285 283 283 281 279 280 279 279 278 278 277 277 276 276 275 274 274 274 274 274 275 274 273 273 273 273 272 273 273 273 273 273 273 273 273 272
280 281 282 283 279 282 288 284 283 292 292 284 284 287 288 286 286 285 288 286 285 284 284 286 282 285 284 285 283 283 283 282 282 280 280 279 278 278 278 278 279 278 277 276 277 278 278 277 279 280 281 283 283 282 277 278 279 279 278 277 277 276 275 275 274 274 274 273 273 273 273 274 274 274 274 273 273 272 272 273 274 274 273 273 273 273 273
285 283 286 284 284 285 285 287 284 283 288 287 283 284 286 287 285 286 286 286 284 284 284 287 287 285 283 283 283 282 283 282 282 280 280 279 278 278 278 278 275 276 275 276 277 276 277 276 276 277 277 278 278 276 277 277 278 277 277 277 276 275 275 274 273 273 274 273 272 272 271 271 271 273 273 273 273 273 273 273 273 274 273 273 273 273 272
285 287 283 283 283 285 288 287 286 288 287 286 284 284 282 282 283 284 284 282 282 282 284 285 285 285 282 283 283 282 283 284 282 280 279 278 277 275 274 274 274 275 276 277 275 274 277 275 275 275 276 276 273 274 275 276 276 276 277 276 276 274 274 273 273 273 273 273 273 272 272 272 272 272 272 273 274 274 274 274 274 274 273 273 273 272 272
282 282 279 280 283 285 285 285 283 283 286 288 287 285 283 282 283 282 280 282 282 283 284 282 283 283 283 283 283 282 281 280 279 279 278 277 277 275 275 273 273 276 275 275 274 273 275 274 274 274 274 272 271 274 275 275 276 276 276 275 274 273 272 272 272 272 272 272 272 272 272 271 272 273 273 273 274 274 275 275 277 276 275 275 274 275 273
283 286 285 283 282 279 285 284 287 288 287 286 287 284 284 283 284 283 284 281 278 279 280 280 282 284 283 280 279 279 279 279 279 278 277 275 274 274 273 272 272 274 273 273 273 274 274 272 273 273 270 270 270 273 274 275 276 276 275 274 272 272 272 272 272 272 271 271 271 271 271 271 271 269 275 276 275 274 274 276 276 277 278 275 275 275 274
285 287 284 288 288 285 288 291 290 290 286 286 286 286 287 286 285 283 284 284 282 281 279 278 281 280 280 279 279 280 278 278 277 277 277 276 275 274 272 273 272 273 273 272 272 272 271 270 271 270 270 269 270 271 272 274 275 276 274 274 273 272 271 272 272 272 271 271 271 271 271 271 271 271 270 272 276 276 276 276 277 277 277 277 277 276 274
288 286 287 288 288 287 284 285 287 287 284 286 287 286 286 285 284 282 282 282 284 280 279 278 278 280 278 278 278 278 277 276 275 275 274 274 273 273 271 273 273 271 271 271 272 272 271 270 270 269 269 268 269 269 270 272 274 275 274 274 273 273 272 272 272 272 271 271 271 271 271 271 271 271 271 271 273 276 277 277 278 278 278 278 277 276 276
287 282 284 286 285 281 278 279 280 283 282 286 286 285 284 282 280 281 282 279 279 282 282 281 277 276 277 276 276 277 277 275 274 275 273 273 274 273 272 271 271 272 272 272 272 271 269 269 269 268 268 268 267 268 269 270 272 273 273 274 274 272 272 272 272 271 271 271 271 271 270 270 270 271 271 272 272 272 275 278 278 278 278 278 277 277 277
280 280 279 279 279 279 280 282 282 280 280 280 280 278 279 280 280 280 280 281 279 278 281 280 279 276 276 277 276 274 275 274 274 273 273 273 272 272 272 271 272 271 271 271 270 269 268 267 268 267 268 268 267 268 268 269 270 272 272 273 273 273 272 272 271 271 271 271 271 271 271 271 271 272 272 273 274 273 272 273 275 276 278 278 278 277 277
280 283 286 285 284 283 282 285 285 281 278 279 282 280 279 280 279 278 277 276 276 276 278 278 277 275 274 273 274 273 276 273 272 273 272 272 272 272 272 271 271 270 269 269 268 268 269 268 268 268 269 268 266 266 267 268 270 270 271 271 270 270 270 271 271 272 271 271 271 271 270 270 271 272 272 272 273 273 273 273 272 271 272 274 277 278 276
282 278 280 285 284 285 283 278 279 279 279 280 281 280 277 279 280 281 280 279 278 275 275 272 276 276 278 273 273 273 272 272 274 272 272 272 271 270 270 269 269 268 268 268 267 267 267 267 267 267 269 267 266 265 266 267 269 270 270 270 270 270 270 271 271 271 271 271 270 270 270 270 271 272 272 272 272 273 273 273 272 271 271 272 272 276 277
277 277 277 279 281 281 279 279 279 280 278 278 279 278 279 280 278 279 277 277 276 275 277 273 272 272 277 273 271 273 271 270 272 273 273 271 269 268 267 266 266 266 266 266 265 265 265 266 266 267 269 265 264 265 265 266 268 269 269 269 269 270 270 269 270 270 270 269 269 269 270 269 269 269 270 271 271 272 272 272 270 270 269 268 267 268 273
277 278 279 279 279 281 282 281 280 279 279 279 279 277 278 280 280 277 277 276 275 278 275 272 274 273 271 272 270 272 274 275 275 273 270 269 268 266 266 265 265 265 267 267 265 264 264 265 266 268 269 264 264 264 264 265 267 267 268 268 269 269 269 267 267 268 268 268 268 269 268 268 268 268 268 269 269 270 270 270 269 269 268 267 268 268 268
278 279 280 280 280 280 281 280 279 278 278 277 278 278 276 278 278 278 277 276 274 276 273 272 272 271 272 273 273 271 271 271 270 269 268 267 265 266 266 268 272 273 271 270 266 264 265 265 266 268 267 262 263 263 264 265 266 266 266 267 266 268 269 269 269 267 267 267 267 267 267 267 267 267 267 268 268 269 270 269 269 268 267 267 267 267 268
280 279 279 279 279 279 278 278 278 278 277 275 278 279 278 278 277 279 276 274 274 273 271 272 273 274 274 271 268 269 268 269 269 269 268 267 267 267 267 268 269 269 268 267 265 265 265 265 266 268 264 262 263 263 264 265 265 266 266 266 266 266 267 269 267 268 266 267 267 267 267 267 267 267 267 267 268 269 269 269 268 268 267 267 266 267 267
282 280 279 279 279 279 278 277 279 276 277 278 279 279 278 278 279 278 277 276 275 274 274 272 272 273 270 268 269 269 267 268 270 271 270 270 269 266 266 265 265 265 266 266 265 266 266 267 268 265 262 262 263 263 263 264 264 265 265 265 265 264 265 268 267 266 266 265 266 267 267 267 267 267 267 268 268 268 269 268 268 268 267 267 267 267 266
284 283 283 282 283 283 282 280 279 280 279 279 279 279 278 278 278 277 277 276 276 275 274 273 272 270 268 268 268 269 270 274 276 275 274 272 269 268 267 266 267 268 268 268 268 268 267 266 266 265 263 262 262 262 262 262 263 264 263 263 264 264 264 265 266 266 265 266 266 267 267 267 267 267 267 268 268 268 268 267 267 267 267 266 267 265 265
282 281 282 281 281 282 283 283 282 281 281 280 279 278 277 277 277 276 276 276 275 274 274 273 272 272 271 270 271 270 272 276 275 275 274 273 272 270 268 268 268 268 269 269 268 268 269 269 269 266 262 261 261 260 261 261 262 262 261 263 263 264 264 264 265 265 266 266 266 266 266 266 267 267 267 268 268 267 267 267 267 267 266 266 265 263 264
280 281 279 278 276 275 275 276 278 279 280 278 277 275 273 273 273 274 273 273 272 272 273 273 273 273 273 273 273 272 272 273 273 273 272 272 270 267 267 269 268 269 269 270 271 269 270 270 267 266 264 262 261 261 261 261 260 261 261 262 262 263 264 264 264 265 265 265 266 266 266 267 267 267 267 267 267 267 267 266 266 266 266 266 264 262 263
274 276 275 273 272 270 270 270 271 273 273 272 271 270 269 268 268 268 268 268 267 268 269 271 272 272 272 271 270 270 271 271 270 271 270 269 267 268 268 268 268 268 267 270 271 267 266 265 264 264 263 262 262 261 261 262 261 260 260 261 261 262 263 263 263 264 264 265 265 265 265 265 265 266 266 266 266 266 266 266 266 266 265 265 264 263 263
269 269 270 270 268 267 265 264 266 269 268 265 264 264 264 264 265 265 265 264 263 263 265 267 268 268 268 269 270 270 269 269 268 268 268 268 267 267 268 268 269 268 269 271 266 263 263 263 263 262 260 260 260 260 261 262 262 260 259 260 261 262 262 263 263 264 264 264 264 265 265 265 265 265 265 265 265 266 266 266 266 265 265 265 264 263 263
266 266 266 266 266 265 264 263 261 261 262 264 263 262 261 262 263 263 263 262 261 261 262 264 266 267 266 267 268 268 267 265 265 265 266 266 263 265 267 268 268 268 268 267 264 263 261 261 261 260 260 260 258 259 259 261 262 260 259 259 260 261 262 262 263 263 264 264 264 264 264 264 264 264 265 265 265 265 265 265 265 265 265 265 264 263 263
262 262 261 262 262 263 262 261 259 259 258 258 258 258 258 259 261 261 261 260 260 260 260 262 263 263 262 262 263 264 263 262 261 261 261 261 260 261 264 264 263 261 262 262 262 259 260 262 260 257 257 257 256 256 258 260 261 259 258 259 259 260 261 261 262 262 262 262 263 264 264 264 264 264 264 264 264 264 264 264 264 264 264 264 264 264 263
260 260 259 259 259 259 259 260 259 258 257 257 256 256 257 257 259 259 259 258 258 259 258 259 259 259 258 258 258 258 259 259 258 257 257 258 260 261 261 264 260 258 260 261 259 259 260 259 257 257 258 257 255 259 257 260 259 258 258 258 259 259 260 260 261 262 262 262 263 263 263 263 263 263 263 263 263 263 263 263 263 264 264 264 263 263 263
256 257 258 257 256 256 256 258 258 257 256 255 255 255 255 256 256 257 257 257 257 258 257 257 258 257 255 255 255 256 256 257 256 257 256 257 258 259 261 261 256 258 260 260 260 259 258 256 257 259 258 256 256 260 260 260 257 257 258 258 259 259 259 260 260 261 261 261 262 262 262 262 262 262 263 263 263 263 263 263 263 263 264 263 263 262 262
254 254 255 255 255 254 254 254 255 255 255 254 253 253 254 254 254 255 255 256 255 255 255 255 255 255 255 255 255 256 256 256 256 256 256 257 257 257 259 258 258 258 259 259 259 257 258 256 256 255 259 259 258 259 260 257 256 256 257 258 258 259 259 259 259 260 260 260 261 261 261 261 262 262 262 262 263 263 263 262 263 263 263 263 263 262 262
252 252 253 253 253 253 254 254 254 254 254 254 253 253 254 253 253 253 253 254 254 255 254 253 254 253 254 254 254 255 255 255 255 255 255 257 257 255 254 254 255 256 258 258 258 258 257 257 255 258 259 260 260 260 258 256 255 256 256 257 257 258 258 258 259 259 259 260 260 261 261 262 262 262 262 262 263 263 263 263 263 263 263 263 263 262 262
250 251 251 251 251 252 252 253 252 252 252 252 252 253 253 252 252 252 252 252 252 254 254 253 252 252 251 251 251 250 251 252 252 252 254 257 259 256 254 256 255 256 257 258 257 257 256 256 258 259 259 260 260 260 258 256 256 256 256 257 257 257 257 258 258 258 259 259 260 261 261 261 262 262 262 263 262 263 263 262 262 263 263 262 262 261 261
250 250 250 251 250 250 250 251 251 252 252 250 251 253 252 251 251 251 250 249 250 251 250 250 251 250 248 248 248 249 249 251 252 251 253 253 254 255 255 255 255 256 257 257 255 256 255 258 259 259 259 259 259 259 256 256 256 255 255 256 256 257 257 258 258 259 259 259 260 260 261 261 261 262 262 262 262 262 262 262 261 262 263 262 262 261 261
249 249 249 248 249 249 249 249 252 253 251 252 251 251 252 251 250 250 249 248 248 248 248 248 248 248 248 247 247 249 251 252 253 251 247 247 251 254 255 255 255 256 256 255 255 255 255 257 258 258 259 259 259 257 256 255 255 255 256 256 257 257 257 258 258 258 258 259 259 260 260 260 260 260 260 261 261 261 261 261 261 261 262 261 260 260 259
248 248 249 248 248 249 250 251 251 250 250 250 248 249 250 250 250 250 250 250 250 250 250 249 249 247 247 245 244 244 246 247 252 253 251 252 252 252 252 252 254 255 256 256 256 256 257 257 257 257 258 258 258 256 255 255 254 254 255 255 255 255 256 256 256 256 257 257 258 258 258 258 259 259 259 260 260 260 260 261 261 261 261 260 259 259 258
246 247 247 248 248 248 249 250 250 250 249 249 248 248 250 249 248 249 249 249 248 249 250 249 249 248 248 248 248 246 245 247 248 249 251 251 250 250 251 253 254 255 255 254 254 254 256 256 257 257 257 257 255 254 252 253 253 254 253 255 255 255 256 256 256 256 256 257 258 258 258 258 258 259 259 259 259 259 259 259 260 260 259 259 258 258 257
247 247 248 249 249 248 248 248 248 247 246 247 247 247 248 248 249 250 251 249 249 250 249 248 249 250 250 249 246 245 244 245 247 247 248 249 250 250 251 252 253 254 254 254 253 254 255 255 255 255 255 252 252 251 251 251 251 253 253 255 256 254 255 256 257 257 257 257 257 257 257 258 258 258 258 258 259 259 259 259 259 258 258 258 257 257 257
248 248 247 248 247 247 245 245 246 247 245 246 246 247 248 247 247 249 248 249 247 247 248 247 248 249 247 245 246 245 245 244 246 250 250 250 249 251 252 252 251 252 253 252 250 250 250 250 251 253 254 253 253 252 252 253 253 254 255 254 254 255 255 256 256 256 257 258 258 258 258 258 259 259 259 258 258 258 258 258 258 258 257 257 257 257 257
245 245 245 246 245 245 245 244 244 245 245 245 245 245 246 247 247 246 246 250 247 245 247 247 247 247 247 245 246 246 247 247 248 247 250 249 248 247 249 252 249 249 249 248 249 248 248 249 252 253 254 253 253 253 255 256 255 255 255 256 257 257 258 258 258 258 258 258 258 258 258 258 258 258 258 258 257 257 257 257 257 257 257 257 257 257 256
Wind_Speed
5 2 7 9 11 12 9 12 12 12 12 11 14 18 21 7 11 20 5 8 12 7 8 7 7 7 8 6 4 4 4 5 4 3 3 5 6 6 5 8 7 7 10 9 8 7 8 5 6 6 5 5 4 4 4 6 6 6 5 5 5 5 4 6 5 5 7 5 5 7 7 8 8 8 8 7 7 7 7 8 7 8 8 10 10 9 8
4 3 3 6 11 3 4 9 11 12 12 17 21 22 20 14 16 19 9 4 4 3 6 7 9 8 5 3 3 4 5 6 3 2 4 5 8 8 9 10 9 8 9 7 7 7 7 8 8 7 7 7 7 7 7 5 6 5 6 6 6 6 6 6 6 6 7 7 7 7 8 8 8 8 8 8 8 8 8 8 8 8 9 8 9 10 10
0 2 3 2 4 7 6 5 9 12 15 19 22 19 14 9 14 18 7 9 15 6 6 7 9 3 0 4 7 8 7 5 4 4 7 8 10 11 10 9 8 6 7 8 8 9 10 10 10 9 9 8 6 6 7 7 6 5 6 7 6 7 7 6 7 7 7 7 7 8 7 8 8 8 8 8 8 8 8 8 9 9 9 10 8 8 9
2 1 4 4 5 4 3 4 8 15 19 18 14 10 7 6 18 11 5 12 19 2 8 11 5 4 6 9 9 6 5 6 5 6 9 10 10 9 9 7 6 7 9 9 10 12 12 11 10 9 9 7 8 10 8 8 6 5 5 6 6 5 5 7 6 7 7 8 8 8 8 9 9 8 8 8 9 9 9 9 8 8 9 9 8 8 8
4 2 4 8 5 4 2 9 17 23 15 10 5 11 13 18 16 9 14 23 2 9 8 5 3 7 11 11 10 10 9 6 7 9 11 11 10 9 9 9 9 9 11 11 12 12 9 9 11 11 9 9 12 11 9 7 6 7 7 7 7 7 7 8 8 8 8 9 9 9 8 8 8 8 9 9 9 10 10 9 9 9 9 9 8 7 8
3 0 7 3 7 6 13 20 16 13 15 15 13 14 18 17 10 15 16 16 6 2 4 9 11 11 12 14 13 9 7 7 8 11 10 11 10 9 8 10 10 9 7 8 8 8 7 7 6 6 9 10 6 5 7 6 8 8 8 7 7 8 8 8 9 9 9 9 9 9 8 9 9 9 9 10 8 7 8 8 9 9 8 9 8 8 8
6 6 6 7 10 12 22 2 7 15 16 17 24 25 19 17 18 18 13 11 4 10 10 13 14 13 10 2 4 6 7 8 9 11 12 12 11 13 12 9 9 10 10 8 7 5 4 4 5 6 6 5 5 6 7 8 7 9 8 8 8 8 9 8 8 9 9 10 10 10 10 9 9 9 10 9 9 8 8 9 10 10 10 9 8 7 7
5 4 9 9 16 11 3 2 2 3 13 19 14 14 12 8 7 12 17 20 15 13 13 8 4 1 2 4 5 8 8 7 11 10 11 11 10 11 11 11 12 10 7 6 5 5 3 6 7 8 9 7 8 8 6 8 8 8 9 9 8 8 9 10 10 10 11 11 11 11 11 10 11 11 10 10 11 8 8 7 6 7 5 7 9 8 7
10 6 11 10 5 7 8 9 6 11 9 6 11 11 16 15 15 17 20 19 14 13 12 12 3 2 1 5 10 4 8 12 12 12 11 9 10 10 11 9 9 3 2 4 5 5 5 7 8 9 8 9 9 8 9 8 9 8 8 9 10 11 11 11 11 11 11 12 12 12 11 11 11 10 11 10 8 7 9 8 9 8 8 7 7 8 8
6 8 1 1 4 9 17 9 3 6 6 10 9 6 12 6 14 15 15 15 15 16 14 6 3 2 3 11 14 8 11 15 10 5 9 10 10 9 8 5 4 5 4 3 4 6 7 8 9 7 8 9 9 9 9 8 10 9 10 12 11 12 12 11 10 10 10 11 11 11 11 12 11 9 7 6 8 7 10 10 9 8 8 8 6 6 7
5 3 8 8 11 16 9 6 11 9 10 14 9 4 11 11 14 13 17 16 13 13 11 5 8 6 6 14 11 10 13 8 5 11 12 10 10 8 6 6 7 6 5 4 4 4 5 7 6 6 8 10 9 9 8 9 8 10 12 12 12 12 9 7 8 8 8 7 8 9 10 9 9 10 9 9 7 6 6 7 8 8 7 8 7 5 5
8 9 6 9 4 9 6 9 6 13 12 14 9 2 13 7 13 12 12 14 13 13 12 10 10 11 11 10 11 9 8 6 7 6 9 8 6 5 4 4 5 5 1 2 2 4 7 6 4 7 8 9 9 9 8 7 9 11 15 13 6 5 6 7 7 7 6 7 7 8 9 7 7 8 7 8 8 8 7 7 9 7 7 7 9 6 5
7 9 4 2 7 8 5 7 9 10 14 13 9 14 15 7 11 10 12 13 13 12 7 10 9 12 14 11 5 2 1 1 4 5 5 6 3 5 4 6 4 3 3 4 4 4 3 3 5 6 7 7 8 6 6 7 13 14 5 4 6 7 7 8 8 8 7 8 10 8 7 9 8 8 7 9 9 9 9 8 8 8 8 7 7 7 5
14 11 11 9 5 8 11 2 13 15 8 5 19 10 5 12 4 5 10 11 8 8 12 11 11 11 8 6 4 3 3 6 3 2 3 4 3 1 1 3 2 1 0 1 0 0 1 5 6 7 8 8 7 7 7 12 11 3 4 5 5 6 7 7 7 8 8 7 8 8 8 9 10 8 6 6 8 9 8 9 10 9 8 7 7 7 5
6 4 4 1 7 10 17 14 1 7 13 13 5 5 2 2 9 10 6 7 6 10 9 10 11 8 2 6 9 9 6 4 6 5 4 4 4 2 1 1 0 1 2 2 3 3 3 5 6 7 9 9 7 6 11 8 3 5 5 7 7 7 6 7 6 6 5 7 7 6 7 7 8 9 7 8 7 8 9 9 10 10 9 8 8 7 6
15 13 11 11 10 6 17 23 15 12 5 3 10 7 6 1 4 8 7 6 8 11 10 11 9 9 6 4 6 6 7 7 6 4 5 3 1 2 1 1 1 2 3 2 2 2 3 4 5 6 9 9 8 9 10 3 5 5 6 6 7 8 8 8 7 7 7 7 7 6 8 8 8 9 9 8 8 8 9 10 10 9 8 7 7 8 8
9 11 11 1 3 11 14 10 5 12 8 3 4 10 8 8 5 4 6 10 8 10 11 8 9 6 7 8 5 7 9 6 5 6 5 3 2 2 2 1 0 1 3 3 3 2 2 4 5 6 6 8 7 9 4 6 6 7 7 7 8 8 8 8 9 8 8 8 8 8 8 10 11 10 9 10 10 7 8 8 8 10 9 8 9 8 7
1 2 2 0 1 3 9 3 1 10 10 3 1 5 7 4 7 11 9 7 9 9 5 8 2 7 6 7 5 7 6 5 4 2 1 1 1 1 0 1 1 1 1 2 3 4 2 3 4 5 5 6 9 5 5 6 7 8 9 9 9 9 8 8 8 8 9 7 7 8 8 8 9 10 12 12 10 10 8 8 8 9 9 8 7 8 7
7 10 8 6 2 0 6 6 1 2 2 7 4 3 5 6 8 11 5 4 6 8 9 9 9 9 6 6 6 5 5 6 6 4 4 3 3 3 3 3 3 2 3 3 3 2 3 2 3 3 4 4 3 4 6 6 7 8 8 9 8 8 9 8 7 8 10 8 7 6 6 6 6 7 7 8 9 10 10 10 9 8 8 9 9 11 10
12 13 3 5 6 8 9 9 6 5 6 3 5 2 1 0 1 2 4 4 5 7 8 10 8 6 5 6 6 5 7 7 5 5 4 4 1 2 2 2 2 2 2 3 3 3 4 3 3 4 4 3 2 4 4 5 6 7 8 9 10 9 9 8 8 8 9 10 10 9 9 9 9 8 7 8 10 12 13 12 11 9 9 9 10 13 14
3 2 1 0 3 2 6 6 5 3 4 8 8 6 2 1 4 2 2 1 5 8 5 5 5 4 6 7 5 5 5 3 3 3 3 4 3 2 1 1 1 2 2 2 3 4 4 4 4 3 2 2 3 5 6 6 8 9 8 6 6 6 7 7 8 7 8 9 9 9 9 8 7 7 9 10 8 6 3 3 6 11 13 11 10 9 11
9 15 12 12 9 4 7 5 10 11 11 8 7 4 3 3 4 5 6 2 2 2 2 3 4 6 4 3 3 4 2 2 1 1 1 1 0 1 0 1 0 0 0 2 3 4 3 3 4 4 4 3 3 4 5 6 7 8 7 7 6 7 7 8 8 8 7 7 7 7 8 8 8 3 2 3 3 5 6 2 1 2 3 5 7 9 9
14 9 6 12 8 6 10 16 16 14 6 7 7 10 11 11 5 4 5 4 2 3 3 1 3 3 1 1 2 0 0 1 1 0 0 0 0 0 0 1 0 1 1 1 1 2 3 2 3 3 3 2 3 3 4 5 7 7 8 8 7 7 7 8 9 9 8 8 7 7 7 8 7 7 5 2 4 4 3 3 3 4 5 3 7 7 8
6 5 15 14 10 10 5 6 8 8 6 9 9 7 4 4 5 4 4 3 5 3 3 3 1 2 3 3 4 2 0 1 2 3 2 2 2 1 2 0 0 1 1 1 2 4 2 1 2 2 2 1 2 3 4 5 5 7 8 9 9 8 8 6 7 7 6 7 7 8 8 7 8 8 8 7 3 4 6 5 6 7 8 9 11 12 10
7 2 6 6 5 4 1 1 1 2 4 7 7 6 5 4 3 4 5 3 2 7 7 4 3 2 5 4 4 5 4 2 2 2 3 3 4 4 3 2 1 1 3 3 2 1 2 2 2 2 2 3 2 2 3 3 4 5 7 7 7 6 7 7 7 8 8 8 9 9 10 10 9 8 9 10 10 7 4 7 7 8 10 11 12 12 13
7 6 5 5 6 5 3 4 3 1 3 4 4 3 3 5 6 6 5 5 4 4 7 6 6 3 4 6 5 4 6 4 3 3 3 3 2 1 1 2 3 2 1 1 1 2 3 3 4 3 4 5 4 4 4 4 4 5 6 7 6 6 7 9 9 8 9 8 9 9 8 8 9 10 10 10 10 10 10 8 6 5 8 11 12 13 13
4 7 11 9 3 1 2 6 6 5 3 2 6 7 5 7 7 8 6 6 6 4 6 5 6 5 5 5 6 4 5 3 3 3 2 1 0 1 1 1 1 2 2 2 2 4 5 4 4 4 4 4 4 4 4 4 5 5 6 6 5 6 8 8 7 8 8 7 8 7 7 8 9 9 8 7 7 10 11 13 13 12 9 8 11 13 11
5 2 2 7 8 9 6 2 4 6 5 7 8 9 6 7 9 9 9 7 7 5 6 4 6 6 7 2 5 5 4 4 3 1 1 0 1 1 1 1 2 2 2 2 3 2 1 2 2 4 5 3 3 4 4 4 5 6 5 5 5 5 5 8 7 6 6 7 7 7 8 9 8 7 6 7 8 8 7 7 6 7 6 6 5 9 14
2 3 3 2 3 7 9 8 8 8 8 5 6 8 8 10 7 8 6 6 5 5 6 4 4 4 7 3 4 5 4 3 2 1 0 0 0 1 1 2 1 1 2 3 2 1 2 1 3 4 6 2 4 4 4 4 5 5 6 6 6 6 6 5 6 6 6 6 6 6 5 5 5 6 6 6 5 6 6 7 7 6 7 6 4 3 6
3 4 6 8 9 11 13 9 8 7 9 7 9 5 5 11 9 5 5 4 3 6 4 4 5 5 3 4 3 4 4 3 3 2 1 1 1 2 3 3 4 2 1 1 2 2 3 4 4 6 4 2 4 4 4 4 5 4 5 5 5 6 5 4 4 5 5 6 6 6 6 6 6 6 6 6 7 7 7 8 9 9 9 8 8 9 10
6 6 8 8 9 7 11 10 8 7 7 5 6 7 5 6 8 6 5 2 3 4 3 5 4 4 4 4 2 2 2 2 2 2 2 2 3 3 3 4 2 2 2 3 2 3 4 4 4 5 1 3 4 5 5 6 5 5 5 5 5 5 6 5 5 5 6 5 6 6 6 6 7 7 7 7 7 7 8 8 8 8 8 9 10 11 9
12 10 11 8 8 11 8 6 8 7 5 5 7 7 6 7 6 6 5 3 1 2 5 5 5 4 2 2 3 3 2 1 0 0 0 2 2 3 3 4 3 2 2 2 2 3 3 3 4 2 1 3 4 5 5 5 5 5 6 5 5 5 4 6 5 5 5 6 6 7 8 8 8 7 7 8 10 10 9 9 10 10 10 11 11 11 9
14 11 9 7 7 8 7 4 8 6 5 5 4 4 4 5 6 6 5 5 6 5 5 4 1 1 1 2 3 3 2 0 1 2 2 3 2 1 2 2 2 3 4 3 2 2 1 2 2 0 2 3 3 4 5 5 4 5 5 4 5 4 4 5 6 5 5 6 7 8 7 8 8 8 10 10 9 7 8 9 9 9 10 10 10 8 8
7 7 7 4 5 7 7 3 3 5 2 4 5 5 6 5 6 6 5 5 6 5 4 3 3 3 3 3 2 2 2 1 1 3 5 4 3 1 1 1 2 2 3 4 5 4 3 2 2 1 2 3 3 4 4 4 5 4 4 4 5 5 5 6 6 6 6 7 7 7 7 7 8 10 9 9 9 8 9 9 8 8 9 8 7 6 8
9 7 7 7 6 7 5 5 5 4 5 6 5 6 5 5 5 5 4 6 4 2 1 2 3 3 3 3 3 2 1 1 3 3 3 3 4 3 1 1 2 3 4 4 4 5 4 4 3 1 2 2 3 3 4 4 4 4 4 4 4 4 5 5 5 7 8 8 6 7 7 8 9 7 8 8 9 9 9 9 9 9 9 9 8 7 9
6 8 8 8 8 8 9 8 6 6 7 6 6 7 7 7 7 7 8 5 3 4 4 3 3 4 4 3 3 3 3 3 3 3 3 4 4 3 2 4 5 6 5 4 2 3 4 3 3 3 2 2 2 3 3 3 4 4 3 4 4 5 5 5 6 6 6 6 7 7 8 8 8 7 8 8 8 8 9 10 10 9 10 9 8 10 9
9 8 7 7 7 9 10 10 8 8 9 8 8 8 8 9 9 6 4 4 5 5 5 4 4 5 4 3 3 3 4 4 4 4 4 4 3 3 4 4 5 5 5 6 3 4 4 3 3 3 2 2 2 3 3 6 4 4 3 4 5 5 5 5 5 6 6 6 7 7 7 6 7 8 8 9 9 9 9 9 9 9 9 8 9 10 9
10 11 10 8 6 8 9 7 7 8 8 10 8 8 6 4 3 4 5 5 6 5 5 5 5 3 3 2 4 6 5 5 5 5 5 5 4 4 3 3 4 2 4 2 2 5 4 3 2 1 1 2 3 3 3 6 5 3 4 4 5 4 6 5 6 7 6 6 7 7 7 8 8 8 8 8 9 10 9 9 9 10 9 9 9 10 11
12 8 10 8 8 9 8 7 8 10 10 8 7 7 5 5 3 4 6 6 5 5 6 6 2 5 6 6 5 4 5 5 6 6 6 5 4 3 3 3 4 3 4 5 5 6 4 3 1 1 2 4 3 2 4 5 7 5 5 4 4 5 5 6 6 7 6 6 5 7 7 8 8 8 8 9 8 8 8 10 9 8 9 10 10 11 11
7 8 7 8 11 7 7 8 9 8 8 7 8 8 6 7 6 6 5 6 6 6 6 4 6 6 6 6 5 4 5 6 5 5 5 5 3 3 1 1 3 6 6 6 6 5 5 4 1 2 3 4 3 3 4 4 5 4 4 5 5 6 5 6 6 6 6 5 7 7 8 8 8 8 8 8 8 9 8 8 9 9 9 8 9 9 9
8 7 6 7 7 7 7 7 8 7 6 6 7 6 6 7 5 6 8 7 6 6 7 7 7 7 6 5 3 4 4 4 4 5 4 4 3 5 5 4 2 5 6 6 5 5 7 6 4 5 6 4 3 3 3 4 4 4 4 5 5 5 5 6 6 7 6 7 7 7 8 7 8 9 8 8 8 8 8 8 9 9 9 9 9 9 9
7 7 7 7 7 7 8 6 6 7 8 7 7 6 7 8 8 7 5 4 5 6 6 7 8 6 3 3 3 3 3 4 5 5 5 3 3 3 4 2 4 6 11 10 8 7 6 5 6 5 6 5 4 5 5 4 4 4 5 5 5 5 5 6 7 6 6 6 6 6 6 6 7 8 8 8 8 8 8 8 8 9 9 8 8 9 10
8 8 7 6 5 7 7 8 9 7 6 6 8 8 6 6 7 6 5 6 6 6 7 6 6 6 6 6 6 5 4 5 5 5 5 6 3 2 1 3 6 7 11 8 8 6 7 6 6 5 7 6 6 7 6 4 4 4 5 5 6 6 6 6 6 6 5 6 7 7 6 7 7 8 8 8 9 8 8 9 10 9 9 9 9 9 10
5 7 5 6 7 6 6 5 5 5 7 5 5 6 7 7 6 6 6 6 6 6 6 6 6 6 6 6 6 6 6 7 7 6 5 4 5 5 5 5 6 7 10 9 7 6 6 6 6 7 9 10 9 8 6 4 4 5 5 5 5 6 6 6 6 6 6 7 7 7 7 8 8 8 8 9 8 8 8 9 8 9 9 8 9 9 9
7 5 6 5 4 5 6 4 5 4 1 0 2 7 8 9 8 6 6 7 7 5 5 5 5 5 5 5 4 3 4 5 5 4 6 6 4 1 4 6 7 6 8 10 7 6 6 6 8 10 9 10 10 9 6 5 5 5 5 5 5 5 6 6 6 6 7 7 7 7 8 8 8 8 8 9 9 9 9 9 9 9 9 9 9 9 9
6 5 5 6 7 5 3 2 3 1 1 2 3 5 7 7 6 5 5 5 5 4 3 3 3 4 3 3 3 4 3 5 5 4 5 3 2 6 7 7 7 6 10 10 5 6 6 9 12 11 11 11 10 7 5 4 6 5 5 5 5 7 6 6 6 6 6 7 7 7 7 8 8 8 8 8 8 9 8 8 7 8 9 8 8 9 8
5 5 6 6 5 4 4 2 1 4 4 5 7 6 5 5 5 3 4 3 3 3 2 2 2 3 2 2 2 5 7 6 5 1 3 3 4 6 7 9 8 9 9 7 6 6 7 7 8 11 12 11 10 6 5 5 5 5 5 5 5 5 6 6 6 6 6 6 7 8 8 8 8 8 8 8 9 8 7 8 8 8 8 6 8 7 7
5 5 5 5 6 7 5 5 8 8 8 7 2 3 4 5 7 6 5 5 8 7 5 4 4 3 2 1 1 2 1 1 7 5 1 6 7 6 6 6 8 11 11 7 7 6 10 11 11 11 11 10 7 5 5 5 5 5 5 5 5 6 6 6 6 6 6 6 7 7 7 7 7 8 8 8 8 8 7 8 8 7 7 7 7 7 8
3 4 4 4 3 6 7 7 7 7 6 4 4 4 4 5 4 4 4 6 7 6 6 7 8 7 4 3 1 1 1 1 2 5 6 7 7 7 7 7 9 10 9 7 7 6 7 9 10 10 11 8 6 6 5 5 5 6 6 5 5 5 6 6 6 6 6 7 7 7 7 8 8 8 8 8 7 7 6 6 6 6 6 6 6 5 6
4 4 5 6 6 6 5 6 6 3 3 4 4 4 4 4 5 5 5 5 5 5 5 5 5 5 5 5 4 3 2 2 3 4 5 6 6 6 6 6 7 8 8 7 6 7 7 10 9 8 7 5 7 5 5 6 4 5 5 6 6 5 6 7 6 7 7 7 7 7 8 7 7 8 7 6 6 6 5 6 5 5 8 6 5 7 8
5 4 4 5 4 4 3 1 1 2 3 3 3 4 3 3 2 5 5 5 4 5 4 4 6 5 4 5 5 5 4 4 4 5 5 6 4 6 6 6 6 6 7 6 6 6 6 6 7 8 8 7 7 6 5 5 5 5 5 5 5 5 5 6 6 6 6 7 7 7 7 7 7 6 6 5 5 5 4 3 4 4 6 7 8 9 9
3 3 2 3 3 4 1 1 1 1 0 1 2 2 2 2 1 3 4 4 2 3 3 4 6 4 1 1 3 4 4 3 4 4 5 5 4 4 6 6 5 6 6 5 6 5 5 5 6 7 6 6 6 6 6 7 6 5 5 5 4 5 5 5 5 5 6 6 6 6 6 5 5 5 5 4 5 5 5 5 5 6 6 7 7 7 7
Wind_Direction
189 57 143 150 163 186 184 172 171 173 178 171 189 215 223 149 205 242 199 177 231 227 203 228 237 232 238 246 252 235 268 297 312 343 324 304 287 278 260 252 244 238 238 234 233 230 231 225 222 213 205 213 221 213 195 181 172 180 166 158 157 153 145 141 135 129 126 118 116 123 127 126 127 130 131 130 130 132 129 119 114 117 119 121 120 112 106
98 23 138 166 155 137 114 170 182 184 165 195 204 217 221 204 229 241 218 228 253 236 228 228 239 240 235 267 275 306 304 278 312 303 291 278 267 264 252 243 235 232 238 238 232 228 226 218 215 207 202 203 200 196 196 193 184 175 154 162 155 152 153 148 142 145 140 138 136 132 131 134 137 135 136 136 134 128 122 117 118 121 119 119 120 124 120
68 20 83 48 125 151 170 200 185 185 197 207 213 218 224 223 257 253 284 303 274 229 209 238 254 265 137 254 267 245 249 260 252 243 241 247 250 248 250 251 240 229 233 233 230 226 227 215 212 205 203 198 192 198 198 190 189 175 167 164 166 161 156 150 147 140 137 138 136 140 141 138 140 141 139 136 130 124 122 124 125 126 125 124 125 126 126
251 323 98 90 78 63 132 202 207 205 205 212 220 222 212 189 232 237 269 266 254 144 210 231 240 303 278 265 263 263 241 221 216 228 244 247 254 259 260 259 250 234 229 228 225 227 224 216 206 204 198 190 187 202 192 188 179 160 169 163 162 165 147 145 148 149 146 143 145 147 148 151 147 142 138 136 133 131 130 129 129 129 127 129 128 128 121
222 325 145 106 96 77 278 242 218 209 204 203 217 231 221 214 219 219 220 241 136 209 214 204 244 222 242 248 252 261 266 235 211 228 244 251 252 254 254 255 251 240 233 227 225 229 223 210 206 205 187 182 201 196 183 180 149 165 172 168 165 162 156 159 161 158 154 155 153 153 155 148 145 144 144 139 139 141 141 138 134 134 136 132 131 128 125
159 266 127 113 78 202 223 225 212 171 184 195 203 223 219 219 189 221 220 240 221 123 128 193 217 215 226 222 232 225 230 237 240 241 244 244 246 253 256 247 247 256 250 244 239 234 227 220 210 192 192 200 197 169 165 154 164 170 168 172 169 166 163 170 166 161 161 158 157 157 151 151 152 152 150 150 147 139 134 135 134 132 133 132 132 130 129
165 176 119 109 205 226 234 189 148 179 189 184 203 221 216 214 214 230 246 252 173 199 196 206 212 214 231 263 273 265 233 218 226 231 232 238 239 241 246 258 254 249 249 248 244 243 228 191 175 171 195 189 153 157 162 166 172 169 177 170 174 170 172 172 168 165 165 164 159 158 159 159 159 159 154 147 144 145 145 145 146 147 146 140 137 131 129
56 126 160 185 217 233 320 325 291 202 184 203 204 239 245 241 224 220 236 238 229 216 219 230 235 210 302 316 253 239 249 216 230 232 235 234 231 239 239 237 248 245 247 245 243 237 178 163 181 184 189 172 166 173 165 171 172 177 173 175 178 173 179 178 177 175 169 168 165 164 164 164 164 161 157 155 149 146 133 124 117 119 115 126 135 135 133
160 186 187 215 352 334 270 254 212 173 172 153 168 217 249 216 208 203 222 231 233 243 236 230 212 93 359 309 277 237 234 242 228 227 240 235 237 237 250 239 253 278 226 209 213 182 175 179 177 192 177 169 168 161 171 179 172 175 174 183 186 185 187 184 182 178 175 169 169 169 168 167 166 162 156 152 145 142 134 139 139 139 139 137 137 137 139
131 129 144 343 267 254 242 231 82 147 153 155 168 165 265 212 211 209 218 227 220 230 238 217 128 81 302 273 260 244 245 242 242 235 246 254 248 247 252 274 268 264 257 223 202 177 183 192 193 177 167 167 168 172 178 173 174 179 183 196 195 192 192 184 179 176 178 174 171 171 171 173 166 156 143 134 147 155 147 146 141 141 136 128 129 135 140
75 116 166 194 200 231 233 162 172 166 151 140 123 101 264 239 190 204 201 221 218 220 226 169 131 147 213 246 255 250 234 248 228 239 242 241 245 251 252 253 267 265 254 212 198 181 171 198 198 165 164 165 167 180 180 181 181 185 199 202 197 194 185 173 176 173 172 171 171 170 171 167 158 154 156 153 143 133 133 131 132 134 132 128 124 120 127
189 173 171 209 207 236 233 189 184 172 143 122 116 92 254 245 157 192 182 206 206 212 212 149 164 175 219 249 254 240 231 208 226 213 242 253 258 266 276 275 243 261 230 115 123 177 200 212 157 165 160 167 178 183 184 171 186 201 208 205 177 153 158 161 160 161 164 164 166 168 167 151 148 150 142 139 147 138 132 133 135 133 127 127 128 127 128
192 179 235 333 286 259 218 201 171 154 147 124 137 208 234 161 171 178 176 196 202 199 156 146 183 218 210 226 240 246 132 78 267 257 242 246 243 251 256 262 284 233 206 201 202 208 204 147 152 157 157 163 187 186 173 180 209 213 196 137 153 164 154 157 162 165 162 168 166 166 162 156 148 144 151 150 143 141 137 131 126 127 129 129 124 125 125
188 195 193 221 247 241 178 240 163 162 110 181 208 220 142 145 165 181 168 188 197 161 169 185 203 222 221 253 298 295 244 200 237 264 286 306 304 214 219 273 297 252 182 247 17 93 137 149 155 157 161 176 183 182 179 212 216 134 135 150 143 150 157 161 163 164 165 161 160 158 151 149 149 146 136 133 140 138 136 138 137 135 137 135 133 129 129
37 54 198 41 251 246 142 115 49 284 183 216 168 122 0 133 156 152 195 178 187 156 192 203 208 232 191 194 226 239 255 252 254 259 268 268 272 308 354 29 23 147 168 195 207 200 174 157 162 165 166 179 184 183 210 217 142 140 143 145 145 146 148 153 157 154 151 151 149 144 147 148 144 140 139 138 138 139 140 140 141 143 147 147 142 139 137
182 181 185 205 221 64 144 144 179 205 199 185 145 123 149 285 155 162 160 214 177 186 174 193 215 224 221 265 257 265 271 256 261 267 262 254 307 289 264 241 259 172 176 173 175 180 163 163 164 171 172 182 188 198 218 141 139 135 141 140 142 146 152 154 149 151 150 147 142 143 147 145 143 144 148 148 147 155 156 151 151 151 156 155 151 152 153
179 199 203 108 221 162 180 166 164 170 194 169 192 138 153 164 239 205 156 194 198 186 187 183 186 197 216 218 206 201 236 243 236 238 249 249 235 230 249 277 298 175 180 177 158 149 172 169 172 175 182 182 187 207 193 142 148 147 142 145 149 155 157 158 158 154 149 153 154 156 160 157 155 158 156 157 155 168 160 160 161 159 165 169 169 165 155
316 308 198 199 89 192 206 33 314 171 191 198 280 154 154 215 170 170 177 197 179 192 181 145 166 207 207 200 214 226 252 254 250 234 275 284 196 191 190 225 223 161 125 139 154 171 197 189 177 176 187 179 193 202 147 151 149 149 149 150 158 162 161 160 160 154 154 157 160 163 165 173 174 171 165 167 164 163 168 171 172 168 168 174 173 167 155
157 242 207 158 194 238 218 224 337 300 206 193 177 178 183 183 169 191 221 148 162 166 164 182 186 208 193 186 214 216 242 249 244 227 220 233 205 195 195 219 158 140 143 151 184 181 203 234 190 184 182 200 183 141 157 150 149 148 154 159 160 161 162 160 155 162 163 164 161 161 166 166 168 171 175 170 165 167 174 173 175 175 173 173 171 166 161
175 229 159 172 200 191 202 196 202 185 208 199 216 202 113 116 183 178 172 121 115 137 170 199 190 204 170 187 204 203 215 224 215 214 211 208 220 242 223 206 188 159 163 178 182 189 218 229 193 177 176 183 141 133 138 145 143 148 158 169 167 171 167 163 167 170 172 166 165 170 177 175 171 177 191 187 177 178 179 180 173 180 178 179 179 177 165
249 7 264 196 79 252 234 241 257 250 203 196 216 203 117 105 140 150 113 170 160 176 176 152 179 199 222 205 201 192 211 215 213 207 198 197 206 199 196 255 166 183 186 195 200 192 222 212 171 147 140 124 141 148 155 154 155 157 167 167 157 157 160 157 170 174 174 175 178 177 177 186 197 192 184 185 188 195 227 217 202 181 179 185 189 181 170
202 210 204 142 136 223 247 241 220 229 221 198 204 140 209 216 199 180 155 123 68 126 102 151 165 198 232 216 177 213 205 203 210 204 201 206 148 176 339 64 116 25 155 185 195 210 229 197 147 146 149 157 165 161 154 159 158 161 157 153 156 171 172 176 176 173 176 177 180 180 181 180 174 159 79 168 198 196 191 170 160 343 225 200 185 164 162
216 211 129 180 170 173 191 193 206 213 184 158 173 194 208 217 202 160 150 139 101 89 66 100 137 155 151 215 154 116 338 321 311 237 157 76 45 5 78 108 41 198 239 227 223 237 235 210 139 134 139 151 159 162 164 164 167 165 157 164 176 177 178 188 185 182 178 179 181 181 182 182 178 172 149 125 132 138 158 173 176 189 181 161 151 170 164
228 154 173 177 167 187 212 215 203 198 173 168 194 212 219 211 173 156 150 156 150 128 94 98 123 154 128 132 139 157 3 19 35 32 48 64 88 102 106 101 55 348 325 292 234 238 243 166 127 122 139 176 185 184 177 175 177 168 174 172 183 191 190 186 180 184 183 181 179 183 187 184 184 178 173 160 143 165 164 162 163 165 168 165 163 163 165
205 197 177 176 154 96 17 64 358 175 168 173 180 195 180 137 120 145 132 112 144 139 133 117 79 88 112 106 100 97 94 72 73 90 76 63 51 49 34 23 333 247 257 249 256 206 179 157 129 132 163 214 201 204 188 184 177 176 187 190 190 186 185 182 183 183 183 187 189 189 187 185 189 186 181 179 173 167 174 179 167 156 156 156 159 158 155
120 114 96 88 81 97 132 89 55 95 142 143 118 88 87 122 134 111 111 120 113 110 114 121 103 53 92 109 94 116 78 59 62 75 68 53 36 24 347 264 261 252 252 221 181 187 181 166 163 165 197 211 193 194 182 183 185 194 196 202 200 185 185 187 184 192 193 195 193 197 196 196 198 193 196 190 184 168 157 152 167 179 180 177 171 164 164
92 137 115 70 59 82 218 157 200 168 151 100 123 120 119 113 104 99 89 76 82 83 100 111 116 114 74 86 92 69 105 116 72 56 80 92 196 230 254 268 236 211 194 182 207 212 194 170 169 188 224 218 181 182 180 182 188 199 202 202 203 200 190 187 194 198 197 197 198 195 195 200 203 204 200 195 179 178 179 177 179 180 180 184 187 178 173
124 23 38 150 190 196 184 132 104 114 114 120 120 116 122 118 109 101 91 87 76 76 72 76 105 103 90 70 99 85 70 81 106 73 55 264 257 293 281 218 194 180 178 200 220 217 170 169 186 218 248 211 171 178 179 181 189 203 205 202 203 204 201 195 197 198 195 199 196 198 201 204 205 206 200 192 191 194 193 189 180 169 165 175 162 184 176
0 355 32 58 105 104 101 110 94 97 92 78 100 115 122 101 98 99 103 108 138 111 91 64 56 83 114 131 102 107 104 97 78 83 225 244 241 196 165 150 128 140 170 197 209 206 166 180 222 249 262 193 175 179 178 179 201 204 208 202 204 208 204 201 197 199 197 195 198 198 201 200 204 209 207 205 201 193 191 188 177 177 167 153 129 183 173
39 71 85 89 106 118 110 103 113 111 113 125 110 87 101 113 103 107 116 113 113 105 112 119 92 71 92 105 107 128 129 148 172 191 211 235 191 172 156 137 113 100 147 264 243 222 199 221 228 244 256 177 178 170 168 184 205 216 214 215 214 215 211 198 191 192 191 197 199 188 193 194 204 201 207 204 199 195 192 191 188 177 172 178 182 179 180
81 78 88 92 85 78 101 114 108 108 107 100 108 99 71 89 114 120 130 128 74 101 62 75 91 105 85 109 154 165 134 140 157 177 176 181 187 187 175 173 179 254 250 260 226 205 218 234 237 251 247 150 173 167 173 187 203 206 223 226 228 225 219 196 193 193 200 193 189 189 198 197 203 202 208 202 198 199 202 197 190 186 187 184 190 195 189
89 73 70 67 82 97 89 91 99 98 108 120 109 117 129 124 133 147 150 115 114 95 91 71 75 81 84 97 104 96 91 76 57 59 150 165 179 202 207 216 231 237 236 242 215 202 219 238 267 280 152 165 167 181 180 193 191 203 217 217 214 219 213 208 200 200 190 199 194 197 201 196 206 203 207 209 210 208 204 197 198 195 193 193 199 200 177
103 91 73 78 76 76 91 107 114 128 148 129 97 94 84 66 78 85 100 111 88 79 88 109 136 175 134 100 94 97 95 124 316 301 345 26 30 279 261 269 278 295 291 284 295 290 271 272 305 51 158 170 176 180 193 194 197 212 220 203 214 206 206 210 204 197 198 197 205 207 203 205 204 201 214 215 217 217 214 212 209 205 203 205 205 191 176
91 103 127 128 120 124 125 153 143 145 135 74 86 85 77 79 95 104 106 106 101 100 117 157 183 169 135 124 115 99 91 64 340 358 27 28 16 342 246 235 273 286 289 322 326 317 303 283 302 262 177 173 180 186 193 196 206 215 209 200 205 206 208 212 201 201 206 214 213 209 208 208 209 213 214 213 213 214 214 216 215 209 207 208 202 181 179
84 75 77 71 56 65 75 108 150 144 118 104 87 77 73 73 80 86 82 85 82 95 133 140 139 132 127 110 93 86 86 32 15 14 3 7 357 354 7 23 333 338 344 350 314 297 284 275 277 241 158 174 186 197 196 202 207 210 218 210 212 217 218 209 207 212 215 219 203 207 213 215 221 220 220 219 218 215 215 216 212 205 206 202 193 171 182
54 69 58 53 46 52 62 58 54 81 95 92 85 79 65 53 58 59 57 50 26 25 31 43 83 95 82 68 60 48 41 29 21 8 356 353 354 348 9 18 5 352 354 353 355 348 313 297 269 214 173 182 200 214 204 202 207 209 214 205 216 222 219 217 220 225 225 216 218 220 220 221 219 215 213 217 220 218 218 217 213 210 207 202 183 175 181
41 74 77 69 51 60 58 47 32 59 78 79 74 69 68 54 50 53 66 52 35 23 14 22 57 59 58 56 78 85 69 48 28 11 349 341 339 356 14 10 13 2 360 351 358 7 339 323 308 221 199 203 225 222 219 200 208 206 202 209 214 220 221 228 225 223 229 222 224 227 225 222 224 223 215 214 216 219 214 218 217 214 210 201 186 185 185
31 40 46 54 55 58 49 38 40 58 81 79 58 61 56 52 29 47 49 45 27 6 0 26 49 55 60 66 68 56 49 34 21 6 356 1 359 7 9 22 342 0 355 320 333 349 340 339 318 256 246 249 248 236 223 213 211 196 203 215 220 223 228 229 232 231 229 227 223 222 223 222 225 226 223 218 223 220 218 217 213 208 207 201 195 193 194
49 37 44 44 50 55 57 39 38 39 37 67 80 65 41 31 38 65 60 51 29 7 3 14 31 67 49 49 43 41 29 13 359 353 348 353 5 38 332 304 292 313 317 342 339 327 333 347 348 247 255 263 260 248 222 219 214 206 210 214 221 227 232 234 236 238 238 232 227 230 229 231 229 230 226 225 222 224 225 224 220 216 212 206 198 199 198
48 42 36 32 48 39 57 57 48 47 41 40 48 42 359 16 23 57 59 52 26 26 9 19 52 60 42 41 28 17 0 354 346 350 349 328 359 17 351 359 36 16 12 10 6 348 346 340 334 284 271 274 257 245 240 220 212 210 214 218 227 230 235 235 239 241 241 231 234 236 233 235 234 233 233 231 227 226 226 222 221 219 219 216 214 212 206
47 39 33 44 46 40 46 61 61 51 43 37 41 29 14 21 14 46 36 28 359 19 29 35 54 53 44 27 2 324 324 335 4 359 340 336 6 8 37 312 6 24 7 3 1 352 351 343 332 309 299 285 277 252 248 238 215 212 220 223 227 231 237 236 237 239 239 236 237 233 234 236 237 238 236 231 232 230 227 225 224 223 221 220 216 211 211
22 33 43 43 39 34 24 39 75 63 43 36 31 25 29 28 37 47 31 20 23 30 39 39 47 50 29 5 341 338 356 360 1 354 352 346 306 329 358 331 21 14 5 2 2 353 346 333 327 309 299 297 281 269 252 235 222 221 225 230 232 235 237 242 242 246 244 246 244 245 244 237 237 242 237 234 236 232 228 227 227 225 223 219 214 211 206
18 28 31 35 38 32 33 29 43 70 72 40 27 14 34 36 36 33 32 29 29 27 28 28 29 29 22 15 7 9 360 345 350 344 344 303 263 238 312 339 355 352 347 351 346 343 335 323 318 311 304 301 288 277 268 249 232 229 232 236 237 237 239 240 245 246 247 246 250 248 244 240 242 242 241 238 238 233 228 226 226 226 222 219 216 211 210
25 32 34 36 29 18 18 49 61 58 69 43 24 30 42 42 34 31 27 27 24 25 28 18 16 16 12 10 12 6 354 347 344 343 359 332 45 56 75 42 345 340 351 345 342 334 329 322 316 309 310 304 299 290 272 252 242 239 240 239 241 240 242 245 246 243 243 245 248 247 244 246 244 243 243 243 241 237 232 229 228 225 224 221 218 215 212
22 27 25 33 29 36 30 28 39 40 37 339 62 53 39 31 20 24 31 23 18 13 10 10 6 1 358 1 353 322 302 296 291 314 347 339 356 309 25 23 352 339 338 335 329 324 321 314 314 314 310 306 299 297 284 266 249 247 243 245 244 246 245 246 244 245 244 248 248 248 248 247 246 246 244 245 241 239 236 231 227 223 220 220 216 210 207
15 20 19 32 34 27 352 314 278 288 52 92 64 52 42 30 12 8 29 35 20 356 346 324 320 329 321 318 308 293 275 278 279 239 223 235 267 304 335 342 330 328 328 329 318 315 307 310 314 316 315 312 308 300 284 271 258 253 251 248 247 247 248 249 249 249 250 250 250 252 251 252 251 251 247 246 244 241 240 233 231 226 225 221 219 214 210
8 15 20 25 8 355 352 349 7 74 71 59 38 4 360 12 5 356 348 358 12 342 324 312 300 298 291 284 308 352 350 344 324 349 77 27 355 333 322 326 318 323 326 324 317 312 309 313 316 313 311 306 306 297 285 272 268 255 257 251 254 249 254 252 252 254 256 256 257 257 256 255 254 254 253 250 247 242 237 229 228 225 220 216 214 207 201
15 17 0 6 6 352 9 34 50 47 46 48 18 330 332 353 351 347 351 8 1 358 359 354 355 343 355 338 259 216 210 340 349 309 114 26 340 333 328 331 323 324 322 321 318 312 312 312 312 312 310 308 303 291 290 276 270 265 259 258 257 255 255 255 260 257 257 258 260 260 260 258 255 252 248 246 244 239 233 227 227 224 216 208 207 202 197
5 359 334 344 11 22 32 39 43 44 26 7 15 335 339 345 334 337 355 5 3 357 355 338 338 339 336 337 351 302 259 255 209 255 318 343 319 319 311 316 319 324 327 323 323 322 314 316 320 320 320 315 307 300 288 283 271 267 264 258 258 257 254 256 256 255 256 260 257 257 257 257 254 249 247 246 242 237 226 226 221 212 205 202 194 195 193
338 360 12 12 10 14 20 32 39 27 354 355 348 326 327 332 358 343 0 358 342 344 345 325 324 325 327 332 343 327 296 273 279 274 282 291 298 301 305 310 313 318 320 320 321 324 325 329 329 324 326 321 315 303 296 283 278 269 265 267 265 263 259 256 257 256 255 256 257 256 256 254 252 249 246 241 236 230 224 221 218 208 195 194 196 192 179
351 2 351 345 345 341 358 45 15 4 4 320 318 319 335 353 318 313 333 323 357 349 332 318 305 298 320 331 327 328 324 315 300 297 300 302 303 306 308 312 316 317 320 325 322 318 324 330 327 330 333 330 327 318 309 297 287 279 274 268 266 264 266 263 260 259 258 257 257 256 258 255 253 249 243 237 231 227 223 216 212 207 195 195 179 178 174
308 281 296 335 341 325 311 213 211 193 261 284 292 290 303 295 325 299 293 307 10 344 322 342 331 304 322 329 311 311 303 299 296 301 300 300 302 302 307 319 319 317 322 321 315 316 317 320 326 328 328 330 327 326 318 313 304 294 286 279 275 274 270 271 271 270 270 267 265 264 262 260 256 250 243 233 227 224 220 217 216 209 207 194 174 182 171